User: anonymous   Login
Location: Unspecified
(0.0000°N, 0.0000°E)
Time: 10:36:55
(UTC+01:00)
Language:

Cosmos 1263 Rocket - Orbit

View from above orbital plane
View from above orbital plane
View from above satellite
View from above satellite

Ground track
Ground track

The orbit data is extracted from the following two-line orbital elements,

1 12389U 81033B   14331.88367016  .00064151  00000-0  72196-3 0  1604
2 12389 082.8684 308.3843 0162969 240.1531 141.8824 15.47701674734890
Epoch (UTC): 27 November 2014 21:12:29
Eccentricity: 0.0162969
inclination: 82.8684°
perigee height: 312 km
apogee height: 534 km
right ascension of ascending node: 308.3843°
argument of perigee: 240.1531°
revolutions per day: 15.47701674
mean anomaly at epoch: 141.8824°
orbit number at epoch: 73489

The dashed part of the orbit path shows where the satellite is in the earth's shadow,  

DLR